Location: Boćki
(52.6512°N, 23.0459°E)
Time: 15:53:14
(UTC+02:00)

ISS - Pass Details

Date: 28 March 2019
Orbit: 408 x 410 km, 51.6° (Epoch: 25 April)

Event Time Altitude Azimuth Distance (km) Brightness Sun altitude
Rises 20:56:11 0° 278° (W) 2,339 0.8 -25.2°
Reaches altitude 10° 20:58:18 10° 274° (W) 1,476 -0.4 -25.5°
Enters shadow 20:59:22 19° 269° (W) 1,057 -1.3 -25.6°
